Weather History for KNBC - February, 2013

Change the Weather History Date:

Thursday, February 7, 2013

  Actual Average Record
Temperature  
Mean Temperature 53 °F -  
Max Temperature 60 °F - - ()
Min Temperature 46 °F - - ()
Degree Days  
Heating Degree Days 12    
Growing Degree Days 3 (Base 50)    
Moisture  
Dew Point 53 °F    
Average Humidity 92    
Maximum Humidity 100    
Minimum Humidity 83    
Precipitation  
Precipitation 1.83 in - - ()
Sea Level Pressure  
Sea Level Pressure 30.01 in    
Wind  
Wind Speed 3 mph (ENE)    
Max Wind Speed 18 mph    
Max Gust Speed 23 mph    
Visibility 4 miles    
Events Fog , Rain    
T = Trace of Precipitation, MM = Missing Value Source: NWS Daily Summary

Daily Weather History Graph

Daily Weather History Graph

Search for Another Location

Airport or City:

Trip Planner

Search our weather history database for the weather conditions in past years. The results will help you decide how hot, cold, wet, or windy it might be!

Date:

Astronomy

Feb. 07, 2013 Rise Set
Actual Time 7:12 AM EST 6:01 PM EST
Civil Twilight 6:47 AM EST 6:27 PM EST
Nautical Twilight 6:18 AM EST 6:56 PM EST
Astronomical Twilight 5:49 AM EST 7:25 PM EST
Moon 4:45 AM EST (2/7) 3:29 PM EST (2/7)
Length of Visible Light 11h 40m
Length of Day
10h 49m
Waning Crescent, 9% of the Moon is Illuminated
Feb 7
Waning Crescent
Feb 10
New
Feb 17
First Quarter
Feb 25
Full
Mar 4
Last Quarter

Hourly Weather History & Observations

Time (EST) Temp. Windchill Dew Point Humidity Pressure Visibility Wind Dir Wind Speed Gust Speed Precip Events Conditions
12:03 AM 51.8 °F - 48.2 °F 88% 30.17 in 1.2 mi Calm Calm - N/A   Partly Cloudy
12:08 AM 51.8 °F - 50.0 °F 94% 30.16 in 0.8 mi Calm Calm - N/A   Mist
12:14 AM 51.8 °F - 50.0 °F 94% 30.16 in 1.2 mi Calm Calm - N/A   Partly Cloudy
12:19 AM 51.8 °F - 48.2 °F 88% 30.17 in 3.0 mi Calm Calm - N/A   Partly Cloudy
12:38 AM 50.0 °F - 48.2 °F 94% 30.16 in 1.5 mi Calm Calm - N/A   Partly Cloudy
12:43 AM 48.2 °F - 46.4 °F 93% 30.16 in 0.2 mi Calm Calm - N/A Fog Fog
12:56 AM 48.0 °F - 46.0 °F 93% 30.15 in 0.2 mi Calm Calm - N/A Fog Fog
1:05 AM 48.2 °F - 46.4 °F 93% 30.15 in 1.2 mi Calm Calm - N/A   Partly Cloudy
1:13 AM 50.0 °F - 48.2 °F 94% 30.15 in 1.8 mi Calm Calm - N/A   Partly Cloudy
1:24 AM 51.8 °F - 50.0 °F 94% 30.15 in 1.5 mi Calm Calm - N/A   Clear
1:47 AM 48.2 °F - 46.4 °F 93% 30.15 in 5.0 mi Calm Calm - N/A   Clear
1:56 AM 48.9 °F - 46.9 °F 93% 30.15 in 3.0 mi Calm Calm - N/A   Partly Cloudy
2:08 AM 48.2 °F - 46.4 °F 93% 30.15 in 6.0 mi Calm Calm - N/A   Scattered Clouds
2:19 AM 48.2 °F - 46.4 °F 93% 30.14 in 1.2 mi Calm Calm - N/A   Scattered Clouds
2:21 AM 48.2 °F - 46.4 °F 93% 30.14 in 0.5 mi Calm Calm - N/A Fog Fog
2:29 AM 46.4 °F 45.2 °F 46.4 °F 100% 30.14 in 0.2 mi NNE 3.5 mph - N/A Fog Fog
2:39 AM 48.2 °F - 48.2 °F 100% 30.14 in 1.5 mi Calm Calm - N/A   Mostly Cloudy
2:41 AM 50.0 °F - 48.2 °F 94% 30.14 in 4.0 mi Calm Calm - N/A   Mostly Cloudy
2:49 AM 48.2 °F - 46.4 °F 93% 30.14 in 1.8 mi ENE 4.6 mph - N/A   Mostly Cloudy
2:56 AM 50.0 °F - 48.9 °F 96% 30.14 in 1.2 mi Calm Calm - N/A   Scattered Clouds
3:00 AM 50.0 °F - 48.2 °F 94% 30.14 in 2.5 mi ENE 3.5 mph - N/A   Scattered Clouds
3:07 AM 48.2 °F - 46.4 °F 93% 30.14 in 3.0 mi Calm Calm - N/A   Partly Cloudy
3:56 AM 52.0 °F - 50.0 °F 93% 30.14 in 5.0 mi Calm Calm - N/A   Overcast
4:56 AM 52.0 °F - 50.0 °F 93% 30.14 in 6.0 mi Calm Calm - N/A   Overcast
5:56 AM 53.1 °F - 51.1 °F 93% 30.14 in 8.0 mi Calm Calm - N/A   Overcast
6:56 AM 54.0 °F - 51.1 °F 90% 30.14 in 4.0 mi NNE 5.8 mph - N/A   Mostly Cloudy
7:56 AM 55.9 °F - 51.1 °F 84% 30.14 in 10.0 mi NE 4.6 mph - N/A   Overcast
8:56 AM 55.9 °F - 51.1 °F 84% 30.14 in 10.0 mi ENE 8.1 mph - N/A   Overcast
9:56 AM 57.0 °F - 52.0 °F 83% 30.11 in 10.0 mi East 4.6 mph - N/A   Overcast
10:56 AM 60.1 °F - 55.0 °F 83% 30.09 in 10.0 mi East 8.1 mph - N/A   Overcast
11:59 AM 60.8 °F - 57.2 °F 88% 30.07 in 2.5 mi ESE 8.1 mph - 0.01 in Rain Heavy Rain
12:16 PM 60.8 °F - 57.2 °F 88% 30.06 in 2.5 mi East 12.7 mph 18.4 mph 0.08 in Rain Rain
12:28 PM 60.8 °F - 57.2 °F 88% 30.06 in 1.5 mi East 12.7 mph 20.7 mph 0.18 in Rain Heavy Rain
12:34 PM 60.8 °F - 57.2 °F 88% 30.05 in 2.0 mi ESE 11.5 mph - 0.19 in Rain Rain
12:44 PM 60.8 °F - 57.2 °F 88% 30.04 in 2.0 mi East 11.5 mph - 0.24 in Rain Heavy Rain
12:56 PM 59.0 °F - 57.0 °F 93% 30.04 in 2.5 mi East 8.1 mph - 0.28 in Rain Rain
1:26 PM 59.0 °F - 57.2 °F 94% 30.02 in 2.5 mi ESE 8.1 mph - 0.14 in Rain Rain
1:56 PM 59.0 °F - 57.9 °F 96% 30.01 in 2.0 mi East 8.1 mph 16.1 mph 0.28 in Rain Heavy Rain
2:13 PM 60.8 °F - 57.2 °F 88% 29.99 in 3.0 mi Calm Calm - 0.05 in Rain Light Rain
2:22 PM 60.8 °F - 57.2 °F 88% 29.99 in 2.5 mi NNE 3.5 mph - 0.09 in Rain Light Rain
2:32 PM 59.0 °F - 57.2 °F 94% 29.99 in 4.0 mi Calm Calm - 0.10 in Rain Light Rain
2:56 PM 59.0 °F - 57.0 °F 93% 29.99 in 3.0 mi East 5.8 mph - 0.14 in Rain Rain
3:12 PM 59.0 °F - 57.2 °F 94% 29.98 in 4.0 mi ENE 5.8 mph - 0.03 in Rain Rain
3:56 PM 59.0 °F - 57.0 °F 93% 29.96 in 5.0 mi NE 8.1 mph - 0.11 in Rain Rain
4:43 PM 57.2 °F - 55.4 °F 94% 29.91 in 5.0 mi ENE 11.5 mph - N/A Rain Rain
4:56 PM 57.9 °F - 55.9 °F 93% 29.91 in 7.0 mi ENE 10.4 mph - N/A Rain Rain
5:56 PM 57.0 °F - 55.0 °F 93% 29.90 in 5.0 mi ENE 11.5 mph 19.6 mph 0.06 in Rain Rain
6:25 PM 57.2 °F - 55.4 °F 94% 29.87 in 5.0 mi Variable 4.6 mph - 0.09 in Rain Rain
6:56 PM 57.0 °F - 55.0 °F 93% 29.85 in 4.0 mi ENE 9.2 mph 17.3 mph 0.14 in Rain Rain
7:12 PM 57.2 °F - 55.4 °F 94% 29.86 in 4.0 mi NNE 8.1 mph - 0.08 in Rain Rain
7:28 PM 57.2 °F - 55.4 °F 94% 29.85 in 2.5 mi ENE 15.0 mph 19.6 mph 0.17 in Rain Rain
7:37 PM 57.2 °F - 55.4 °F 94% 29.84 in 3.0 mi Variable 3.5 mph - 0.22 in Rain Rain
7:44 PM 57.2 °F - 55.4 °F 94% 29.85 in 2.0 mi ESE 8.1 mph - 0.26 in Rain Rain
7:52 PM 57.2 °F - 55.4 °F 94% 29.85 in 3.0 mi NE 6.9 mph - 0.30 in Rain Rain
7:56 PM 57.0 °F - 55.0 °F 93% 29.85 in 3.0 mi NE 6.9 mph - 0.31 in Rain Rain
8:11 PM 57.2 °F - 55.4 °F 94% 29.82 in 2.5 mi NE 6.9 mph - 0.13 in Rain Rain
8:21 PM 57.2 °F - 55.4 °F 94% 29.82 in 3.0 mi ENE 9.2 mph - 0.18 in Rain Rain
8:45 PM 57.2 °F - 55.4 °F 94% 29.81 in 1.8 mi NE 8.1 mph - 0.35 in Rain Rain
8:56 PM 57.0 °F - 55.0 °F 93% 29.82 in 1.8 mi SE 3.5 mph - 0.44 in Rain Rain
9:00 PM 57.2 °F - 55.4 °F 94% 29.81 in 2.5 mi ENE 4.6 mph - 0.00 in Rain Rain
9:07 PM 57.2 °F - 55.4 °F 94% 29.80 in 7.0 mi ENE 6.9 mph - 0.01 in Rain Rain
9:37 PM 57.2 °F - 55.4 °F 94% 29.79 in 10.0 mi ENE 10.4 mph - 0.03 in Rain Rain
9:56 PM 57.0 °F - 55.0 °F 93% 29.78 in 10.0 mi ENE 5.8 mph - 0.03 in Rain Rain
10:04 PM 57.2 °F - 55.4 °F 94% 29.77 in 10.0 mi ENE 4.6 mph - 0.00 in Rain Rain
10:56 PM 59.0 °F - 57.0 °F 93% 29.74 in 10.0 mi Calm Calm - 0.02 in Rain Rain
11:26 PM 57.2 °F - 55.4 °F 94% 29.76 in 7.0 mi NNW 18.4 mph 23.0 mph 0.01 in Rain Rain
11:47 PM 55.4 °F - 53.6 °F 94% 29.77 in 10.0 mi NNW 11.5 mph 20.7 mph 0.02 in Rain Rain
11:56 PM 54.0 °F - 52.0 °F 93% 29.78 in 10.0 mi NNW 15.0 mph 19.6 mph 0.02 in Rain Rain